Location: Durham
(54.7770°N, 1.5720°W)
Time: 17:40:23
(UTC+00:00)

ISS - Visible Passes

Search period start: 03 December 2016 00:00
Search period end: 13 December 2016 00:00
Orbit: 401 x 410 km, 51.6° (Epoch: 03 December)

Date Brightness Start Highest point End Pass type
(mag) Time Alt. Az. Time Alt. Az. Time Alt. Az.
03 Dec -1.1 18:09:30 10° SSW 18:11:04 17° S 18:11:04 17° S visible
04 Dec -1.0 17:18:35 10° S 17:20:13 13° SE 17:21:19 12° ESE visible
04 Dec -0.7 18:53:00 10° SW 18:54:00 17° SW 18:54:00 17° SW visible
05 Dec -1.9 18:01:25 10° SW 18:04:11 28° SSE 18:04:11 28° SSE visible
06 Dec -1.5 17:09:57 10° SSW 17:12:32 21° SSE 17:14:20 14° ESE visible
06 Dec -1.2 18:45:23 10° WSW 18:47:01 25° SW 18:47:01 25° SW visible
07 Dec -0.9 16:18:49 10° S 16:20:48 15° SE 16:22:48 10° ESE visible
07 Dec -2.5 17:53:36 10° SW 17:56:43 38° SSE 17:57:08 36° SE visible
07 Dec 0.3 19:29:43 10° W 19:29:48 11° W 19:29:48 11° W visible
08 Dec -2.0 17:01:55 10° SW 17:04:52 31° SSE 17:07:14 14° ESE visible
08 Dec -1.6 18:37:50 10° WSW 18:39:54 32° SW 18:39:54 32° SW visible
09 Dec -2.6 17:45:57 10° WSW 17:49:08 46° S 17:49:59 36° SE visible
09 Dec 0.1 19:22:14 10° W 19:22:39 13° W 19:22:39 13° W visible
10 Dec -2.3 16:54:07 10° WSW 16:57:14 41° SSE 17:00:04 12° E visible
10 Dec -2.0 18:30:16 10° W 18:32:44 38° SW 18:32:44 38° SW visible
11 Dec -2.6 17:38:20 10° WSW 17:41:33 49° S 17:42:50 29° ESE visible
11 Dec -0.2 19:14:45 10° W 19:15:31 15° WSW 19:15:31 15° WSW visible
12 Dec -2.5 16:46:24 10° WSW 16:49:36 48° S 16:52:49 10° E visible
12 Dec -2.1 18:22:43 10° W 18:25:39 37° SSW 18:25:39 37° SSW visible
